Location: *
(43.0409°N, 0.1694°E)
Time: 11:57:49
(UTC+00:00)

COSMOS 2428 - Pass Details

Date: 03 October 2023
Orbit: 843 x 858 km, 70.9° (Epoch: 01 December)

Event Time Altitude Azimuth Distance (km) Brightness Sun altitude
Rises 04:37:49 0° 326° (NW) 3,417 5.6 -15.5°
Reaches altitude 10° 04:40:29 10° 317° (NW) 2,480 4.8 -15.0°
Maximum altitude 04:45:29 33° 256° (WSW) 1,409 3.3 -14.1°
Drops below altitude 10° 04:50:28 10° 194° (SSW) 2,474 4.9 -13.2°
Sets 04:53:08 0° 185° (S) 3,408 5.7 -12.7°
